Regional Weather Roundup
Issued by NWS Grand Forks, ND

Home | Current Version | Previous Version | Text Only | Print | Product List | Glossary Off
Versions: 1 2 3 4 5 6 7 8 9 10 11 12 13 14 15 16 17 18 19 20 21 22 23 24 25 26 27 28 29 30 31 32 33 34 35 36 37 38 39 40 41 42 43 44 45 46 47 48 49 50

000
ASUS43 KFGF 060231
RWRFGF
PRAIRIE TO PINES  WEATHER ROUNDUP
NATIONAL WEATHER SERVICE EASTERN NORTH DAKOTA/GRAND FORKS ND
900 PM CDT TUE MAY 05 2015

 **SATELLITE DATA USED TO AUGMENT SKY COVER AT AUTOMATED STATIONS**
 *****  WEATHER ACROSS EASTERN NORTH DAKOTA  *****

CITY           SKY/WX    TMP DP  RH WIND       PRES   REMARKS
GRAND FORKS    PTCLDY    71  47  42 S13       29.94R
GRAND FRKS AFB PTCLDY    72  48  43 S17       29.94R
GRAND FRKS NWS   N/A     68 N/A N/A S14         N/A
DEVILS LAKE    PTCLDY    63  37  39 SE6       29.90S
FARGO          PTCLDY    70  53  54 SE21G30   29.97R
WAHPETON ARPT  CLOUDY    64  50  59 SE21G26   30.00S
$$

 ***** WEATHER ACROSS CENTRAL AND WESTERN NORTH DAKOTA  *****

CITY           SKY/WX    TMP DP  RH WIND       PRES   REMARKS
BISMARCK       PTCLDY    70  47  43 S13       29.85R
MINOT          PTCLDY    69  34  27 SE8       29.82R
JAMESTOWN      MOCLDY    70  51  51 SE17      29.90S
MINOT AFB      PTCLDY    69  38  31 S10       29.80S
GARRISON         N/A     66  42  41 SE9       29.82S
WILLISTON      CLEAR     71  49  45 SE15G25   29.76R
DICKINSON      PTCLDY    63  49  60 SE18      29.79S
HETTINGER      CLOUDY    63  51  65 SE15G23   29.82S
$$

 *****  OTHER AIRPORT OBSERVATIONS IN OUR AREA  *****

CITY           SKY/WX    TMP DP  RH WIND       PRES   REMARKS
WALHALLA       FAIR      64  25  22 SE7       29.93F
GRAFTON AIRPOR FAIR      68  28  22 SE13      29.95R
VALLEY CITY AR FAIR      68  52  56 SE13G21   29.94S
CANDO          MOCLDY    64  32  29 SE10      29.90S
CAVALIER APRT  FAIR      66  25  20 SE7       29.94S
GWINNER        PTCLDY    66  54  63 SE17G26   29.97R
SHEYENNE NWR     N/A     67  54  62 S15       29.95
ROLLA          NOT AVBL
 ***** THE ABOVE OBSERVATIONS ARE NON NWS ARE NOT QUALITY
       CONTROLLED AND MAY MIS-REPORT RAIN FOR SNOW...
$$

  *****  WEATHER ACROSS NORTHERN MINNESOTA  *****

CITY           SKY/WX    TMP DP  RH WIND       PRES   REMARKS
FLAG ISLAND    PTCLDY    64  30  27 E3        30.03S
WARROAD        MOCLDY    66  34  30 SE9       30.03S
ROSEAU         CLOUDY    68  25  19 SE9       30.02R
HALLOCK        PTCLDY    70  16  12 SE10      29.96S
THF RVR FALLS  PTCLDY    64  28  25 SE8       30.00S
BAUDETTE       PTCLDY    63  38  39 S3        30.05R
WASKISH        PTCLDY    61  36  39 CALM      30.06S
CROOKSTON      PTCLDY    72  43  35 S14       29.99R
STEPHEN NDAWN    N/A     70  23  17 SE10        N/A
GREENBUSH NDAW   N/A     64  27  24 SE7         N/A
$$
  *****  WEATHER ACROSS CENTRAL AND WEST MINNESOTA  *****

CITY           SKY/WX    TMP DP  RH WIND       PRES   REMARKS
FOSSTON        PTCLDY    64  36  34 SE8       30.03R
BEMIDJI        PTCLDY    63  39  40 SE10      30.05R
PARK RAPIDS    CLOUDY    68  43  40 S13       30.05R
ELBOW LAKE     CLOUDY    63  53  70 SE18      30.03S
WADENA         CLOUDY    64  50  59 S16       30.06R
DETROIT LAKES  PTCLDY    64  48  55 SE10      30.04S
MOORHEAD       MOCLDY    68  54  60 SE17G23   30.00R
FERGUS FALLS   CLOUDY    64  54  68 SE17      30.03R
MORRIS MN      CLOUDY    63  54  72 SE22      30.03R
STAPLES        CLOUDY    64  45  48 SE10      30.08R
$$
  *****  WEATHER ELSEWHERE ACROSS MINNESOTA  *****

CITY           SKY/WX    TMP DP  RH WIND       PRES   REMARKS
DULUTH         PTCLDY    56  27  32 E14       30.15R
INTRNTL FALLS  CLEAR     56  32  40 SE3       30.07S
ELY            PTCLDY    57  23  26 SE10      30.16R
CLOQUET        MOCLDY    52  27  37 E3        30.16R
WHEATON        CLOUDY    61  52  72 SE17      30.02R
BRAINERD       CLOUDY    65  38  36 S10       30.10R
HIBBING        PTCLDY    61  28  28 SE10      30.12R
ALEXANDRIA     CLOUDY    62  52  69 SE14G24   30.07S
SAINT CLOUD    CLOUDY    63  50  62 SE12      30.10R
MINNEAPOLIS    CLOUDY    57  54  89 SE10      30.13S
$$

  *****  WEATHER ACROSS SOUTH DAKOTA  *****

CITY           SKY/WX    TMP DP  RH WIND       PRES   REMARKS
SIOUX FALLS    CLOUDY    64  58  80 E14       29.99R
BROOKINGS      CLOUDY    61  55  82 SE20      30.01S
WATERTOWN      CLOUDY    61  56  83 SE12      29.99S
HURON          CLOUDY    63  59  87 SE7       29.93F
SISSETON         N/A     63  55  75 S20       29.98R
ABERDEEN       CLOUDY    66  55  67 S13       29.93S
MITCHELL       CLOUDY    64  58  80 E6        29.94S
PIERRE         CLOUDY    59  54  83 SE10      29.88S
MOBRIDGE       CLOUDY    63  52  67 SE13      29.85S
RAPID CITY     CLOUDY    61  50  67 S15       29.83S
$$

  *****  SOME WEATHER IN NEARBY STATES *****

CITY           SKY/WX    TMP DP  RH WIND       PRES   REMARKS
GLASGOW MT     PTCLDY    70  43  37 E7        29.61S
GREAT FALLS MT CLOUDY    56  46  69 E10       29.76R
CHEYENNE WY    CLOUDY    48  44  86 SE8       29.85S
SCOTTSBLUFF NE LGT RAIN  54  53  97 E13       29.83F
OMAHA NE       CLOUDY    72  59  63 SE12      29.97S
DES MOINES IA  CLOUDY    74  57  55 SE7       30.04S
DAVENPORT IA   CLOUDY    60  57  89 E13       30.16R FOG
CHICAGO IL     CLOUDY    49  47  93 NE7       30.21S FOG
EAU CLAIRE WI  CLOUDY    60  44  55 SE16      30.18R
LA CROSSE WI   RAIN      56  53  90 SE5       30.18S FOG
$$

  *****  SOME NATIONAL WEATHER *****

CITY           SKY/WX    TMP DP  RH WIND       PRES   REMARKS
LA GUARDIA NY  MOCLDY    69  52  54 S6        30.17R
RALEIGH NC     PTCLDY    71  52  50 S9        30.27R
ATLANTA GA     PTCLDY    73  51  46 SE5       30.23R
NEW ORLEANS LA CLEAR     73  60  63 SE12      30.11R
OKLAHOMA CITY  LGT RAIN  66  64  94 SE14G20   29.89F FOG
ALBUQUERQUE NM CLOUDY    54  48  80 SE6       29.92S
SALT LAKE CITY TSTM      62  48  60 NW18G26   29.78R
LOS ANGELES CA MOCLDY    60  50  69 W12       29.94S
BOISE ID       CLEAR     67  18  15 NW13      29.78R
SEATTLE WA     PTSUNNY   51  41  68 NE20      30.08R
$$

*** WEATHER ACROSS MANITOBA...SASKATCHEWAN AND ONTARIO ***
                ***ONTARIO***

CITY           SKY/WX    TMP DP  RH WIND       PRES   REMARKS
GERALDTON      CLEAR     52  28  40 SW6       30.21R
THUNDER BAY    PTCLDY    48  30  49 NE6       30.22R
SIOUX LOOKOUT  PTCLDY    52  32  46 CALM      30.10S
TORONTO        MOCLDY    54  30  40 CALM      30.30R
BIG TROUT LK   CLOUDY    43  21  42 N3        30.17S
PICKLE LAKE    MOCLDY    55  34  44 E6        30.12R
DRYDEN         CLEAR     64  27  24 SE7       30.09S
KENORA         MOCLDY    63  30  29 W2        30.07R
$$
                *** MANITOBA***

CITY           SKY/WX    TMP DP  RH WIND       PRES   REMARKS
BRANDON        MOCLDY    64  34  32 SE10      29.89R
DAUPHIN        CLEAR     70  37  30 S10       29.85S
ISLAND LAKE    MOCLDY    37  36  93 NE8       30.14F
PILOT MOUND      N/A     63  25  23 SE10        N/A
THE PAS        MOCLDY    41  30  65 E12G23    29.99F
THOMPSON       PTCLDY    45  19  36 NE5       30.14
WINNIPEG       PTCLDY    63  25  23 SE12      29.96S
LYNN LAKE      MOCLDY    45  18  33 E7        30.11S
CHURCHILL      PTCLDY    19  14  79 NW13      30.27S WCI   7
GILLAM         CLEAR     37  16  41 NE2       30.20R
$$
                ***SASKATCHEWAN***

CITY           SKY/WX    TMP DP  RH WIND       PRES   REMARKS
ESTEVAN        MOCLDY    68  46  45 SE14      29.76S
KINDERSLEY     MOCLDY    66  37  34 E8        29.64S
LLOYDMINSTER   PTCLDY    61  41  48 E22G29    29.66R
PRINCE ALBERT  MOCLDY    52  37  58 E18G26    29.79R
REGINA         CLOUDY    70  41  35 SE13      29.70S
YORKTON        CLEAR     70  39  32 SE9       29.78R
N. BATTLEFORD  PTCLDY    59  41  51 E18G30    29.69F
LA RONGE       MOCLDY    45  27  49 E12G21    29.94F
SASKATOON      TSTM      63  45  51 E18G26    29.73R
SWIFT CURRENT  CLOUDY    63  43  48 SW3       29.68R
$$
NOTE: THESE ARE AUTOMATED STATIONS WITH LIMITED QUALITY CONTROL
      "FAIR" INDICATES FEW OR NO CLOUDS BELOW 12,000 FEET WITH NO
      SIGNIFICANT WEATHER AND/OR OBSTRUCTIONS TO VISIBILITY.
      SKY/WX - SKY CONDITION AND SIGNIFICANT WEATHER.
      TMP - AIR TEMPERATURE.    DP   - DEWPOINT TEMPERATURE.
      RH  - RELATIVE HUMIDITY.  PRES - PRESSURE.
      HX  - HEAT INDEX.         WCI  - WIND CHILL INDEX.
$



USA.gov is the U.S. government's official web portal to all federal, state and local government web resources and services.